Location: Unspecified
(54.1780°N, 0.0000°E)
Time: 22:59:26
(UTC+00:00)

Tiros 1 - Pass Details

Date: 26 June 2019
Orbit: 630 x 664 km, 48.4° (Epoch: 19 July)

Event Time Altitude Azimuth Distance (km) Brightness Sun altitude
Rises 01:06:40 0° 261° (W) 2,947 10.3 -11.2°
Reaches altitude 10° 01:09:06 10° 255° (WSW) 2,032 9.4 -11.1°
Maximum altitude 01:13:28 40° 186° (S) 935 7.5 -11.0°
Drops below altitude 10° 01:17:48 10° 117° (ESE) 2,014 9.6 -10.8°
Sets 01:20:13 0° 110° (ESE) 2,918 10.5 -10.7°
